This is the latest recevied weather packets stored in our database for station/object K4WCH. If no packets are shown the sender has not sent any weather packets the latest 10 day(s).
| Time | Temp. | Humidity | Pressure | Rain* | Wind** | Luminosity | Snow |
|---|---|---|---|---|---|---|---|
| 1787932397 | 32.22° C | 59% | 1018.9 hPa | 0 mm | - | 899 W/m² | - |
| 1787932092 | 32.22° C | 60% | 1018.7 hPa | 0 mm | - | 888 W/m² | - |
| 1787931791 | 32.22° C | 59% | 1018.8 hPa | 0 mm | - | 876 W/m² | - |
| 1787931500 | 31.67° C | 60% | 1018.9 hPa | 0 mm | - | 866 W/m² | - |
| 1787931186 | 32.22° C | 60% | 1019 hPa | 0 mm | - | 853 W/m² | - |
| 1787930885 | 31.67° C | 59% | 1018.9 hPa | 0 mm | - | 842 W/m² | - |
| 1787930584 | 31.67° C | 62% | 1018.9 hPa | 0 mm | - | 828 W/m² | - |
| 1787930280 | 31.11° C | 61% | 1018.9 hPa | 0 mm | - | 816 W/m² | - |
| 1787929980 | 31.67° C | 59% | 1019 hPa | 0 mm | - | 802 W/m² | - |
| 1787929678 | 31.11° C | 63% | 1018.8 hPa | 0 mm | - | 791 W/m² | - |
| 1787929374 | 31.11° C | 63% | 1018.9 hPa | 0 mm | - | 773 W/m² | - |
| 1787929071 | 31.11° C | 64% | 1018.9 hPa | 0 mm | - | 756 W/m² | - |
| 1787928767 | 30.56° C | 64% | 1018.8 hPa | 0 mm | - | 742 W/m² | - |
| 1787928465 | 30.56° C | 65% | 1018.9 hPa | 0 mm | - | 728 W/m² | - |
| 1787928165 | 30.56° C | 66% | 1018.6 hPa | 0 mm | - | 713 W/m² | - |
| 1787927864 | 30.56° C | 67% | 1018.6 hPa | 0 mm | - | 698 W/m² | - |
| 1787927558 | 30.56° C | 68% | 1018.8 hPa | 0 mm | - | 678 W/m² | - |
| 1787927254 | 30° C | 71% | 1018.7 hPa | 0 mm | - | 664 W/m² | - |
| 1787926949 | 30° C | 70% | 1018.8 hPa | 0 mm | - | 646 W/m² | - |
| 1787926644 | 30° C | 70% | 1018.8 hPa | 0 mm | - | 629 W/m² | - |
| 1787926342 | 29.44° C | 70% | 1018.8 hPa | 0 mm | - | 610 W/m² | - |
| 1787926038 | 29.44° C | 71% | 1018.7 hPa | 0 mm | - | 589 W/m² | - |
| 1787925732 | 29.44° C | 72% | 1018.5 hPa | 0 mm | - | 570 W/m² | - |
| 1787925431 | 28.89° C | 74% | 1018.6 hPa | 0 mm | - | 549 W/m² | - |
| 1787925131 | 28.89° C | 74% | 1018.7 hPa | 0 mm | - | 530 W/m² | - |
* Rain latest hour (hover to see other rain measurements)
** Current wind speed in m/s (hover to see current wind gust speed)